Theta_e
308 298 297 296 298 300 302 302 301 301 301 300 299 298 295 295 296 300 301 296 298 296 296 297 297 297 298 300 301 302 303 302 302 302 302 302 303 303 303 303 304 303 302 305 303 302 301 301 300 299 299 298 298 297 297 297 297 297 297 296 295 296 296 295 295 294 294 293 293 293 293 293 293 293 294 293 294 293 293 294 293 293 292 293 292 291
302 297 297 300 301 302 302 303 303 301 300 298 297 296 295 297 295 300 300 295 297 294 295 298 297 297 298 300 301 302 301 300 301 301 302 302 303 304 304 304 304 304 305 303 302 301 301 299 299 298 297 297 296 296 296 296 296 296 297 296 296 296 295 295 295 294 294 294 294 293 293 293 294 293 292 292 293 293 294 293 293 293 292 292 292 291
297 295 299 301 303 303 301 301 301 299 298 298 296 296 295 296 300 301 297 295 295 294 293 296 295 295 298 299 301 300 300 301 302 302 302 303 303 304 305 305 305 304 301 301 301 301 299 299 298 297 296 296 296 296 295 296 296 296 296 296 296 295 295 295 295 295 294 295 295 295 294 294 293 294 294 294 294 293 293 293 293 292 292 292 291 291
294 297 301 303 303 301 300 299 298 298 298 296 296 294 292 297 297 294 296 294 294 294 294 295 293 294 297 299 299 301 301 301 303 304 304 305 304 304 305 305 306 302 301 300 299 298 298 298 297 296 295 296 296 296 295 295 295 295 296 296 296 295 295 295 295 295 295 296 296 296 295 295 294 292 292 293 292 292 292 291 292 292 292 291 291 291
296 301 300 301 302 300 298 298 296 296 295 298 297 296 295 297 298 297 297 295 297 296 294 294 292 294 296 296 298 300 302 301 302 303 303 304 306 306 308 308 308 303 302 301 300 299 297 296 296 295 295 296 295 295 295 295 295 295 295 295 295 295 295 295 295 295 295 295 294 293 293 293 292 291 291 291 290 291 292 291 291 291 292 291 290 290
297 302 301 299 299 298 298 296 297 297 294 296 299 298 298 298 297 298 299 295 294 293 294 294 288 290 297 298 299 300 299 298 300 299 299 301 303 304 304 305 306 306 304 303 300 299 298 297 296 296 296 295 295 295 295 295 295 295 295 295 295 295 295 294 295 295 295 293 292 291 289 288 288 288 288 288 289 290 290 290 291 292 291 291 290 290
299 300 299 299 300 299 298 296 299 299 294 293 296 301 300 298 298 298 297 295 289 288 293 294 288 286 295 295 297 298 298 298 300 299 299 300 302 303 304 306 305 303 303 304 302 300 298 297 296 296 295 295 294 295 296 295 295 295 295 295 295 295 294 295 295 294 294 292 292 291 291 290 289 289 291 292 292 292 292 292 291 291 291 290 290 289
300 297 297 299 298 297 296 294 298 298 295 293 296 297 298 297 297 296 296 294 292 296 297 294 293 287 287 294 298 298 297 297 298 299 300 301 302 303 304 306 304 303 303 303 301 299 298 297 296 295 295 295 295 295 295 295 295 295 295 295 294 295 294 295 295 293 293 292 292 291 291 291 291 291 291 292 292 292 291 290 290 290 290 290 290 289
299 298 296 296 296 295 295 298 303 301 297 296 294 298 296 296 296 296 294 292 293 291 287 291 294 287 287 294 298 297 294 295 296 297 298 300 302 303 305 307 304 304 304 303 301 300 298 297 297 297 296 296 296 295 295 294 295 295 295 295 295 294 294 294 294 293 293 293 292 292 292 291 292 293 292 292 291 290 290 289 289 289 289 289 289 288
297 297 299 299 297 295 299 293 297 301 296 295 296 296 296 296 295 295 292 292 291 288 284 289 292 286 287 295 294 296 295 294 296 298 299 301 302 304 306 306 304 304 304 303 302 301 300 299 298 298 297 296 295 295 296 295 295 295 295 294 294 293 293 294 293 293 292 292 292 291 291 291 291 291 291 291 290 289 289 288 288 288 288 288 288 288
296 295 296 297 298 299 293 292 293 294 295 296 297 296 295 294 293 292 292 290 288 284 286 291 293 290 284 292 293 292 294 296 298 299 300 302 304 304 307 307 305 303 303 302 302 302 301 300 298 297 296 295 295 295 295 295 295 295 294 294 293 293 293 293 293 292 292 292 292 291 291 291 291 290 290 289 288 288 288 287 288 287 288 288 287 287
296 294 295 297 297 295 297 293 293 293 296 297 294 293 293 291 291 290 289 289 284 283 290 293 293 292 283 289 294 297 299 299 299 299 300 301 302 305 306 305 304 302 302 302 301 300 300 299 298 297 295 295 294 294 294 295 294 294 294 294 293 293 293 293 292 292 291 291 291 291 291 291 291 291 289 288 288 288 287 287 287 287 287 286 287 286
294 295 297 297 296 297 294 295 291 293 293 295 293 292 288 287 287 284 285 282 283 283 288 293 294 289 287 292 296 297 298 299 300 300 300 301 302 304 308 305 303 302 302 301 300 300 299 298 296 295 295 294 293 293 294 294 294 294 294 293 292 292 292 292 292 291 291 291 290 291 291 291 291 290 290 289 288 289 288 287 287 286 285 286 285 285
294 298 297 298 295 296 298 291 292 288 290 291 290 289 287 283 283 281 284 287 287 289 291 289 294 287 292 293 298 297 299 300 300 301 303 302 302 303 309 305 302 302 301 301 300 300 299 298 297 296 295 294 294 294 293 294 293 293 293 293 292 292 292 292 291 291 290 290 290 290 290 290 290 289 289 289 288 288 287 287 286 286 285 285 285 285
288 289 293 295 292 298 296 296 297 296 290 291 296 293 289 289 285 281 284 282 284 287 287 290 285 284 285 290 298 299 301 301 301 302 303 304 306 307 303 305 303 302 301 301 300 300 299 298 297 296 295 294 294 294 293 293 293 293 293 292 292 291 291 291 291 290 290 290 290 290 290 290 289 289 288 288 288 287 286 286 285 285 285 284 284 283
291 290 299 299 298 297 295 299 301 297 293 293 295 296 290 288 294 286 288 287 285 284 285 284 283 290 290 297 299 301 301 300 301 301 302 302 302 304 299 300 301 301 300 300 300 300 299 299 298 297 296 295 294 294 293 293 293 293 292 292 292 291 291 291 290 290 290 289 289 289 289 289 288 288 288 287 287 286 286 286 285 284 284 283 283 283
289 288 296 295 294 295 294 296 298 300 288 292 293 288 291 298 295 289 289 287 283 284 282 288 287 290 295 296 298 298 298 299 299 299 300 300 301 303 302 302 301 300 300 300 300 300 299 299 298 297 296 295 294 293 293 292 293 293 292 292 291 291 291 291 290 290 289 289 289 288 288 288 287 287 286 285 285 285 285 285 284 283 283 283 282 282
288 291 290 294 290 290 289 292 295 294 297 292 286 292 296 298 296 289 283 286 285 281 283 290 286 287 289 286 296 295 295 296 297 298 299 300 301 301 302 303 302 301 301 301 300 301 300 299 298 297 296 295 294 293 293 293 293 293 293 292 291 291 290 290 290 289 289 288 288 288 287 287 286 286 285 285 284 284 283 283 282 282 281 281 281 281
295 287 293 289 289 290 291 294 293 295 294 292 291 296 289 285 283 289 286 279 279 279 282 286 288 288 290 290 291 292 293 294 296 298 298 298 299 300 302 302 303 302 302 301 300 299 299 298 298 297 296 296 295 294 294 293 293 293 293 292 291 290 291 290 289 289 289 288 288 287 286 286 285 285 284 284 284 283 282 281 281 281 281 281 281 280
295 288 289 286 289 290 290 291 286 289 293 292 293 292 294 289 288 286 286 287 286 280 281 281 286 284 294 294 295 293 294 295 296 297 297 297 299 299 300 301 302 303 303 302 301 300 299 299 298 297 296 295 294 294 294 293 293 292 292 292 291 291 291 290 289 288 287 287 287 286 286 285 284 284 283 283 282 281 280 280 280 280 280 280 280 279
290 292 285 286 287 291 285 289 287 291 286 286 287 287 289 287 290 289 289 286 285 282 282 281 281 286 293 297 296 295 296 297 297 297 299 299 299 300 301 301 304 305 306 304 303 301 300 299 297 296 295 295 294 294 293 292 292 292 292 291 291 290 289 288 288 287 287 286 285 285 284 283 283 282 282 281 281 280 280 280 280 280 280 279 279 279
289 287 285 285 283 285 289 294 293 295 294 290 288 287 289 286 284 282 281 290 286 285 281 281 280 287 295 297 298 296 297 298 299 299 300 300 299 300 301 302 303 305 305 304 303 302 301 299 297 295 295 294 293 292 291 291 291 291 291 290 290 290 289 288 287 286 286 285 285 284 283 282 282 281 280 280 280 279 279 279 279 279 279 278 278 278
294 289 287 286 288 290 293 295 292 292 293 295 293 290 293 291 290 285 280 284 285 285 287 286 283 285 296 297 297 296 297 297 299 299 298 301 300 300 302 303 303 304 306 304 303 302 301 300 297 294 293 292 291 291 291 290 290 290 290 290 290 289 288 288 287 286 285 284 283 283 282 281 280 280 279 278 278 278 278 278 278 278 277 277 277 277
292 287 285 286 291 292 288 288 291 290 292 290 291 294 293 289 290 289 288 289 286 286 283 284 280 285 296 298 298 297 297 298 298 298 298 298 300 300 301 302 302 304 304 303 302 301 301 298 296 293 292 291 291 290 290 290 290 290 290 289 289 288 288 287 286 285 284 283 282 282 281 280 279 278 278 277 277 277 277 277 277 277 276 276 276 276
288 287 287 284 284 285 288 289 287 289 290 288 289 292 293 294 294 293 292 289 284 286 287 284 279 285 295 297 298 298 298 296 296 297 298 298 299 300 300 302 302 302 302 300 300 299 298 295 293 292 292 291 290 290 289 289 289 289 289 289 288 288 288 287 286 284 283 282 281 280 279 278 278 277 276 276 276 276 276 276 276 276 275 275 275 275
289 288 286 281 278 277 277 279 282 283 283 287 290 291 292 291 291 289 284 286 282 285 287 284 283 290 294 297 296 297 296 295 296 297 297 298 299 299 301 302 302 301 300 300 298 298 296 294 293 292 291 291 290 289 289 288 288 288 288 288 288 288 287 286 284 283 282 281 280 279 278 277 276 276 276 276 276 276 276 275 275 275 275 274 274 273
286 287 289 286 284 283 285 288 293 292 288 284 287 288 289 292 292 290 288 285 282 285 285 286 287 288 290 293 294 295 296 295 296 296 294 295 296 299 301 301 301 300 299 298 297 298 296 293 291 292 291 290 289 288 288 288 287 287 287 287 287 287 286 284 283 282 281 280 279 277 277 276 276 276 276 276 276 276 275 275 275 274 273 273 272 272
285 284 287 289 288 288 290 290 292 293 289 289 288 287 289 289 289 287 285 283 289 286 281 288 290 287 288 292 293 294 295 296 297 297 298 297 296 298 299 300 298 299 300 299 297 297 295 294 293 291 290 289 288 288 287 287 287 287 287 286 287 286 284 283 282 280 280 279 278 277 276 276 276 276 276 276 276 275 275 274 274 273 272 272 271 270
284 284 287 288 287 290 291 290 291 290 290 290 290 289 288 289 288 285 285 289 290 285 283 289 290 287 290 292 294 295 296 296 297 297 297 299 299 299 297 296 295 296 297 297 297 297 295 295 294 292 290 289 288 287 287 286 286 286 286 286 286 284 282 282 281 279 279 278 277 277 276 276 276 276 275 275 275 274 273 273 272 271 271 270 270 270
287 284 286 288 286 288 288 289 291 289 289 289 288 288 289 289 288 288 288 290 289 287 289 290 290 290 293 294 295 296 297 297 297 298 298 298 297 298 297 296 296 296 295 296 296 297 296 296 295 293 292 290 288 287 286 286 286 286 285 285 284 283 281 280 279 279 278 277 277 277 276 276 275 275 274 274 273 273 272 271 270 270 269 269 268 268
287 283 288 286 284 284 286 288 289 289 288 287 288 289 288 289 289 289 289 290 290 289 290 290 289 288 294 296 296 297 298 298 298 296 297 298 298 297 297 296 296 297 297 297 297 297 297 296 295 294 293 291 288 287 287 286 286 286 285 285 283 282 280 280 279 278 278 277 277 276 276 275 274 274 273 273 272 272 271 270 269 268 267 267 267 267
287 284 287 285 282 281 286 286 286 287 287 286 285 287 287 288 286 288 287 290 288 286 288 288 286 287 293 296 297 297 296 296 295 296 296 297 297 296 296 296 296 296 297 297 298 298 297 295 295 294 294 292 289 288 287 286 285 285 284 283 282 281 280 279 278 277 277 277 276 275 275 274 273 273 272 271 270 269 269 268 267 266 266 266 266 266
285 284 283 283 280 279 285 286 285 285 284 281 282 286 287 288 289 290 291 291 291 291 286 284 285 291 293 295 294 294 295 295 295 295 296 296 296 296 296 296 296 297 297 298 298 297 298 296 295 295 294 293 291 289 288 287 285 284 284 282 281 279 279 278 277 277 276 275 275 274 274 273 272 271 270 270 269 268 267 266 265 265 265 265 266 266
286 285 284 286 279 280 284 284 285 281 274 276 288 291 290 288 288 287 287 289 292 292 290 292 292 294 294 294 293 293 294 294 296 297 298 298 297 297 297 297 298 298 298 298 298 298 298 298 297 295 294 294 292 290 289 287 285 285 284 282 280 278 278 277 277 276 275 274 274 273 273 272 271 270 269 268 267 266 265 264 264 265 265 265 266 265
285 285 284 286 281 280 284 284 279 274 275 286 291 293 293 292 291 290 290 291 292 293 293 292 293 293 294 295 295 295 296 297 298 297 297 299 298 297 297 297 297 297 298 298 298 298 298 298 298 296 293 293 291 289 287 285 285 283 281 280 278 278 277 277 276 275 274 273 273 272 272 271 270 269 267 266 266 265 265 264 264 265 265 265 265 265
285 285 284 284 284 283 281 280 274 273 285 289 291 292 293 292 291 290 288 291 292 292 292 291 293 294 295 295 296 297 297 297 297 298 298 298 299 297 296 296 297 297 297 298 298 298 298 298 297 295 292 291 290 287 286 285 283 281 279 278 278 277 276 276 275 274 273 272 272 271 270 269 268 267 266 265 265 264 264 264 264 264 265 265 266 266
289 287 286 281 285 278 279 279 279 287 282 284 288 289 290 287 288 287 283 286 292 293 293 292 293 294 295 296 296 297 297 297 294 295 298 298 298 298 297 297 298 298 298 299 298 298 298 297 295 294 292 289 288 286 285 284 282 280 277 277 276 275 275 275 273 272 272 271 271 270 269 268 267 266 265 264 264 264 264 264 264 264 265 265 265 265
291 285 286 283 280 285 279 278 278 277 275 282 290 293 296 295 295 293 290 286 295 294 296 294 293 294 294 295 295 295 295 290 289 292 296 298 299 298 297 298 299 298 299 298 299 298 296 294 293 291 290 288 286 285 284 282 281 278 277 276 275 274 274 273 273 272 271 270 269 268 268 267 266 265 265 264 264 263 264 264 265 264 265 264 264 265
291 290 288 285 281 284 280 277 276 276 278 287 289 293 296 297 296 294 289 283 292 295 295 295 294 294 294 293 294 295 291 288 289 292 297 298 298 298 297 298 298 298 298 298 298 297 295 293 291 289 288 287 285 284 282 281 279 277 276 275 274 274 273 273 272 271 270 269 268 268 267 266 266 265 264 264 264 264 264 264 264 265 265 264 265 265
286 286 285 282 280 282 280 278 276 282 281 288 291 292 295 296 297 291 279 279 292 294 295 295 294 294 294 295 295 293 291 288 289 293 298 298 298 297 297 297 297 297 297 297 296 295 293 289 287 286 286 286 285 283 281 280 278 276 276 274 274 273 272 272 272 271 269 268 267 266 265 265 265 264 264 264 264 264 264 264 264 264 264 264 264 264
282 283 284 279 281 281 282 280 283 283 290 293 293 295 295 296 292 282 276 285 294 295 295 295 295 295 295 294 294 291 293 294 295 297 298 298 297 294 294 296 297 296 296 296 294 290 289 288 288 287 286 286 284 281 280 279 277 276 275 274 273 272 273 272 270 269 268 266 265 264 264 264 264 263 263 264 263 263 263 264 264 263 263 263 264 264
282 283 282 284 280 279 280 279 279 284 289 294 294 295 295 291 281 280 290 296 295 295 296 296 295 296 296 295 294 294 295 297 296 297 296 296 296 297 297 294 294 291 288 287 288 287 288 286 286 286 285 284 282 280 279 278 277 276 274 273 272 272 272 270 268 267 266 265 264 263 263 263 263 262 262 262 262 262 262 263 264 263 262 263 263 262
283 282 278 281 282 283 281 278 277 274 287 296 294 292 293 286 286 294 295 296 296 295 295 296 296 296 296 295 296 296 296 296 296 296 296 296 296 296 296 294 291 291 290 287 286 286 286 285 285 285 284 281 279 279 278 278 276 275 273 272 272 271 269 268 267 265 264 263 263 262 261 261 261 261 261 261 262 262 262 262 261 262 262 262 262 261
290 284 282 284 285 280 279 277 277 285 291 295 294 288 292 294 296 297 295 294 296 296 295 296 296 297 297 296 295 295 295 295 295 295 295 295 296 296 296 294 291 290 289 288 287 286 285 285 284 283 281 278 278 277 278 277 276 274 272 272 271 269 267 266 265 264 263 262 261 261 261 260 260 260 260 261 261 261 262 261 261 261 261 262 262 262
291 287 289 284 288 286 282 286 291 294 294 296 297 296 297 299 299 298 297 296 296 296 296 296 296 297 297 296 295 295 295 295 295 295 295 295 295 295 295 295 291 289 288 286 285 284 284 284 283 281 277 276 276 276 276 277 275 272 271 271 269 267 265 265 263 262 261 260 260 260 260 260 260 260 260 260 261 260 261 261 261 261 262 262 263 264
286 287 289 287 284 291 291 292 292 293 293 292 295 296 295 295 296 295 295 294 295 296 296 294 294 293 293 293 292 293 293 294 294 294 294 294 294 295 294 292 290 288 287 285 284 282 282 283 281 278 275 274 274 274 275 276 275 271 272 269 267 266 265 263 262 261 260 260 260 259 259 259 259 260 260 260 261 261 262 261 261 262 263 262 263 263
286 288 284 280 285 284 280 291 287 289 291 291 292 294 295 295 295 294 293 293 293 293 293 293 293 292 292 292 291 292 292 293 293 294 294 294 295 295 294 293 291 288 286 284 284 281 280 279 278 276 274 272 272 273 274 275 274 273 269 266 266 264 263 262 262 260 260 259 259 259 259 259 259 259 259 260 261 262 262 262 263 263 263 264 264 264
279 288 279 280 281 280 279 284 286 288 290 291 291 290 291 293 293 294 294 293 294 294 293 293 293 293 293 292 293 292 292 293 293 293 293 294 294 294 294 294 293 289 287 286 283 280 279 278 277 276 273 272 272 272 273 273 272 270 266 265 264 263 262 262 261 260 259 259 259 258 259 260 260 259 259 260 261 261 262 262 263 263 263 264 264 263
281 282 274 278 277 278 282 283 285 286 287 289 291 293 292 291 291 292 293 293 293 292 292 293 293 293 293 293 294 293 291 292 293 293 292 293 293 293 293 293 292 289 287 284 281 279 279 278 277 276 273 272 271 271 272 272 270 266 265 264 262 262 262 261 261 260 259 259 259 259 260 260 260 261 260 260 261 262 263 262 263 264 264 265 265 265
278 274 279 278 274 274 275 278 282 279 280 286 290 291 291 291 290 289 290 289 290 290 292 292 293 294 294 294 294 293 291 291 292 292 291 292 292 292 292 291 291 289 287 285 282 279 279 278 277 276 273 272 270 270 270 270 266 265 264 262 262 262 262 261 260 259 259 259 259 259 260 260 260 261 261 260 261 261 261 264 266 265 264 263 266 268
277 278 278 275 275 275 281 284 286 286 286 287 288 287 286 286 286 285 285 285 287 288 288 288 288 289 290 291 293 292 291 292 293 293 292 291 292 292 292 292 290 289 288 286 281 278 277 277 276 275 272 270 269 269 269 267 265 264 263 262 262 263 262 260 260 259 259 259 259 260 260 260 260 260 260 261 261 261 260 261 264 267 268 267 267 268
Wind_Speed
3 7 8 10 14 13 14 16 18 16 14 13 11 10 15 16 18 17 15 6 4 5 13 15 18 19 20 19 17 18 16 17 19 18 18 18 15 14 15 17 17 15 13 10 12 15 16 15 14 13 13 13 15 15 16 16 16 16 14 14 14 12 13 11 10 10 9 9 8 7 8 7 7 7 6 5 5 5 5 5 4 4 3 3 3 1
3 9 13 20 18 16 14 10 11 13 12 12 14 14 14 13 16 14 9 7 5 5 9 12 16 18 19 17 18 17 17 20 20 21 22 20 18 15 16 17 15 12 6 10 10 12 14 13 14 14 12 14 17 16 16 17 17 16 15 15 13 12 13 12 11 10 9 9 8 8 8 8 7 7 6 6 6 6 4 5 5 4 4 4 3 2
8 12 18 20 12 3 2 4 8 12 14 12 10 11 11 14 14 16 3 5 4 5 10 11 14 17 19 18 19 19 21 18 17 22 21 18 17 14 14 14 11 9 10 11 12 12 13 14 15 13 13 13 16 17 17 17 16 16 15 14 13 12 13 11 11 10 9 9 8 8 8 8 6 5 4 4 4 5 5 5 5 4 4 4 3 3
10 13 23 18 5 6 8 5 8 9 11 10 9 8 12 12 8 7 4 3 6 5 8 11 15 17 20 21 24 24 22 19 18 20 18 18 16 15 16 10 8 11 11 12 13 14 13 14 14 13 13 13 14 14 15 16 17 14 14 14 14 13 12 11 11 10 9 9 8 5 6 5 5 5 5 3 3 4 4 4 5 4 4 4 4 4
15 8 6 4 4 7 12 7 7 8 10 10 12 11 13 13 13 11 5 2 6 12 4 9 13 14 14 16 13 16 18 15 16 13 14 15 13 14 12 8 7 11 11 11 13 14 14 15 16 17 14 13 14 15 15 15 16 12 16 15 15 13 13 11 11 11 10 9 8 6 6 4 3 2 3 4 5 5 5 5 5 5 5 5 4 4
18 14 5 3 4 6 7 9 11 10 11 10 13 17 17 15 15 16 6 7 7 11 5 4 13 12 10 12 12 5 5 7 9 9 13 14 13 12 12 11 8 9 9 11 14 15 15 15 14 14 14 15 14 15 15 14 15 14 14 15 15 12 12 11 13 12 10 9 10 9 8 7 7 7 7 7 7 7 6 6 4 4 4 4 4 4
10 3 4 9 8 7 9 12 13 8 11 9 8 8 16 16 15 13 11 5 7 7 2 5 5 17 8 7 8 6 7 9 7 9 12 10 10 10 10 8 10 11 9 9 10 13 14 14 14 15 16 16 15 14 13 13 14 15 14 15 15 13 12 11 12 14 10 10 9 10 9 8 8 7 6 6 5 5 5 4 5 4 4 5 5 5
7 5 5 4 8 9 8 11 13 14 9 9 4 2 1 6 9 10 7 7 12 10 6 6 5 16 15 8 8 10 11 10 9 12 13 9 11 12 12 9 10 10 11 10 12 14 14 15 16 17 17 15 15 15 14 13 14 16 16 16 16 13 12 12 12 14 11 10 10 10 9 8 8 8 6 7 5 4 4 4 4 4 4 5 6 5
6 6 8 8 9 7 12 9 1 12 10 2 2 3 2 1 4 2 5 7 8 9 9 6 10 9 14 4 18 16 13 13 14 15 15 15 13 12 12 8 10 11 12 12 12 14 15 16 15 14 15 15 15 15 15 15 15 14 15 15 16 14 13 12 14 14 13 11 10 10 9 8 6 6 5 5 5 5 4 4 4 5 4 4 5 6
3 2 4 9 7 10 3 6 5 6 11 3 3 7 6 4 3 3 4 5 8 8 14 8 13 8 22 5 8 13 14 13 14 14 15 14 12 10 8 7 9 9 10 11 12 12 13 13 13 14 13 14 14 14 13 14 14 14 14 16 17 16 13 12 15 14 14 12 10 10 10 10 8 7 6 5 5 5 5 5 6 5 5 5 6 6
2 2 2 2 10 4 6 5 4 7 5 8 4 3 2 1 3 2 4 4 5 14 16 15 17 13 19 3 10 12 9 13 11 10 11 11 9 9 7 8 8 9 10 9 10 11 11 11 12 13 15 14 14 13 14 14 15 14 15 16 18 17 13 13 15 15 15 13 11 10 11 11 10 9 8 7 6 6 6 6 6 6 5 5 5 5
6 5 2 5 2 5 5 5 5 1 1 5 3 3 2 5 2 4 3 2 5 16 5 15 19 20 14 4 8 12 14 16 13 9 9 9 8 8 7 7 9 10 9 9 10 10 11 11 12 13 14 15 16 14 15 13 14 15 15 16 18 18 16 14 15 15 14 13 12 10 11 11 10 10 8 8 8 8 7 7 6 5 5 5 5 5
10 13 10 4 3 8 6 4 3 3 4 5 5 4 5 4 1 4 4 5 9 12 4 7 15 12 24 17 3 7 9 14 9 8 8 8 8 7 6 8 8 8 10 10 9 10 10 12 13 14 15 14 16 15 17 16 15 15 16 18 19 19 17 15 16 16 15 13 12 11 11 11 10 10 9 8 8 7 7 6 6 6 5 4 4 4
5 3 10 9 4 9 9 10 5 3 10 10 10 9 5 8 7 9 8 8 10 8 6 6 4 14 8 9 17 19 13 13 13 10 8 8 8 6 5 7 8 8 10 9 10 10 11 11 12 13 14 15 14 15 16 16 16 15 14 18 19 19 17 15 16 16 16 15 13 12 11 11 10 10 9 8 8 7 6 6 6 6 5 4 5 4
7 7 9 13 7 13 16 17 12 4 12 13 9 10 10 7 3 6 7 10 11 7 2 4 2 5 2 3 17 23 21 17 14 9 8 9 5 4 4 5 6 7 7 8 9 10 12 12 13 13 14 13 14 15 16 15 15 15 15 17 19 18 18 17 17 15 16 14 14 13 11 11 9 9 8 8 7 7 7 6 6 5 5 5 4 4
11 14 2 9 3 14 14 13 3 6 2 9 8 7 7 12 8 13 7 6 4 7 10 7 7 4 7 4 6 7 14 16 12 12 9 9 8 6 5 5 7 8 7 8 9 10 11 11 12 11 12 13 13 16 14 16 15 15 16 18 19 20 19 17 17 16 16 15 13 14 13 12 11 9 8 7 7 7 7 7 6 6 5 4 4 3
2 9 7 4 1 6 4 3 8 4 7 7 9 9 9 5 6 8 10 2 2 3 17 4 9 12 11 17 12 9 14 16 15 15 12 12 10 8 7 6 8 8 8 8 10 10 11 10 11 11 12 12 13 13 15 17 17 18 16 17 19 19 17 18 18 17 16 15 14 15 14 12 11 11 10 9 9 8 7 6 6 5 5 5 4 3
8 4 2 6 7 2 2 5 3 4 2 9 6 6 5 3 4 3 7 3 7 10 15 4 14 16 8 12 12 16 16 16 18 14 15 13 10 9 8 7 8 9 10 9 8 7 9 11 12 12 12 13 15 15 15 16 15 14 15 16 19 19 19 18 18 17 16 16 15 14 14 13 12 11 10 9 9 8 7 6 6 5 5 6 5 4
2 7 4 1 4 2 1 1 4 2 3 3 1 6 5 5 5 10 4 8 8 11 9 18 21 16 15 14 7 15 17 18 16 14 13 10 9 11 8 9 8 8 8 7 10 9 9 10 12 13 13 13 13 13 13 13 13 13 13 15 18 20 19 18 15 15 13 14 11 11 13 14 12 10 10 9 9 8 8 8 7 7 6 5 6 5
1 8 4 1 2 4 2 6 7 8 4 3 3 4 1 3 5 8 9 4 5 12 10 19 23 18 8 8 10 15 18 16 16 14 11 12 12 10 8 8 11 10 9 9 10 9 10 11 12 13 13 14 15 13 12 14 12 15 15 16 17 16 15 16 16 16 15 14 11 11 12 12 11 11 10 10 10 9 8 8 8 7 7 7 5 5
5 4 7 3 5 2 5 10 10 12 11 6 6 8 5 4 2 4 4 7 8 9 10 10 15 18 5 9 10 13 16 14 13 13 9 9 10 10 10 10 9 7 8 9 9 9 10 11 9 9 9 8 8 9 10 12 14 14 13 15 17 19 17 17 15 14 13 12 12 14 14 13 13 13 11 11 10 9 9 8 8 7 6 6 6 6
3 4 15 4 3 11 9 8 17 17 15 14 16 15 17 10 7 7 10 6 3 6 7 9 14 20 8 6 5 6 4 7 10 9 8 8 10 9 10 10 11 12 10 8 9 7 9 9 9 9 8 8 9 11 12 12 11 13 14 15 17 15 14 15 15 14 14 12 12 15 14 14 12 12 11 12 11 10 9 8 8 7 7 7 6 6
8 4 8 11 11 9 9 2 3 4 3 4 8 10 13 12 11 9 10 7 0 6 8 12 13 24 3 10 7 7 6 3 6 8 8 8 10 10 9 10 12 11 9 8 9 10 11 10 9 9 11 11 12 11 11 11 12 13 14 15 15 15 15 15 14 13 13 13 14 16 14 13 12 12 13 13 10 10 10 9 8 8 8 7 6 6
7 3 4 13 8 3 2 1 0 1 1 4 7 7 9 15 15 12 10 5 5 6 8 10 16 15 8 9 4 5 5 5 6 7 9 9 9 9 11 12 11 8 8 9 8 7 7 6 6 5 8 10 12 13 15 13 12 12 13 15 15 17 17 16 14 14 14 14 14 15 14 14 13 14 13 12 10 12 11 9 9 8 8 7 6 6
4 3 10 6 5 5 10 2 3 3 6 9 11 11 13 10 10 9 1 2 4 13 19 14 16 9 14 10 9 15 6 8 9 11 10 10 9 10 12 11 10 10 10 10 10 12 11 7 9 9 11 10 10 10 11 12 13 14 15 15 16 16 16 15 13 14 14 15 16 15 14 15 14 14 13 13 10 12 11 10 9 8 8 7 7 6
11 5 10 11 13 15 13 16 17 6 10 8 10 13 14 16 14 8 9 7 14 18 26 16 16 19 24 19 20 13 5 7 11 11 8 10 12 11 11 10 10 11 11 12 13 12 12 12 10 8 10 9 10 12 12 13 13 14 14 15 15 15 16 15 14 14 15 15 15 15 15 15 14 14 14 13 11 12 11 10 9 8 7 7 7 6
2 2 12 15 16 14 17 18 6 6 7 8 11 17 15 16 19 16 10 12 17 19 16 18 24 25 22 25 23 25 14 8 10 9 9 10 9 11 13 12 12 12 13 15 15 14 11 7 9 13 11 10 11 11 12 13 13 13 14 15 16 15 14 13 13 14 14 14 14 14 15 14 14 13 13 12 11 10 10 9 9 9 8 7 6 6
2 6 11 17 22 21 19 21 21 21 17 11 12 15 17 18 16 18 17 22 21 9 19 15 25 24 20 21 24 27 24 21 21 23 15 9 10 9 9 11 12 13 11 11 12 12 11 14 15 13 12 11 11 11 10 11 12 13 14 15 15 14 12 10 13 13 14 14 13 13 14 13 12 12 11 11 10 10 9 9 8 8 7 6 6 6
3 10 11 15 20 22 24 25 25 25 23 20 16 16 16 18 19 21 27 26 17 17 18 20 30 25 19 17 22 27 25 26 21 20 21 21 18 7 7 9 13 14 11 13 15 13 15 16 15 14 14 14 11 12 13 11 12 11 11 12 13 12 12 12 13 13 13 13 13 13 12 12 11 10 10 10 10 10 9 9 8 8 7 6 6 5
1 11 12 15 18 18 19 21 24 28 27 25 22 15 12 14 21 29 26 16 20 26 27 28 26 27 18 19 23 26 30 27 23 19 19 16 11 13 8 9 14 15 17 18 18 17 16 18 17 16 16 14 12 12 12 12 13 14 14 14 13 12 11 13 13 14 13 13 12 12 12 12 10 11 10 10 10 10 9 8 8 7 6 6 6 5
9 11 12 14 14 17 20 24 25 28 26 28 23 21 18 17 23 24 16 12 21 25 24 22 27 24 17 22 24 31 26 23 20 22 19 15 24 24 19 19 22 25 23 18 13 16 18 19 19 18 17 16 14 14 13 13 13 12 13 13 13 13 12 13 13 13 13 13 12 12 12 11 10 10 10 10 8 8 8 8 7 6 6 5 5 5
11 13 9 10 12 15 18 24 28 27 26 24 21 19 21 27 27 22 18 16 15 19 20 18 17 15 20 27 26 23 23 24 24 23 23 21 25 25 18 18 20 23 22 17 15 14 14 17 18 19 19 17 17 14 11 11 12 13 14 13 12 11 12 12 11 12 12 11 11 11 11 10 10 9 8 8 8 8 7 7 6 6 6 5 6 5
8 7 9 9 14 18 18 19 21 20 18 17 19 25 32 35 28 25 24 24 21 16 17 16 16 20 22 22 22 24 26 23 19 20 20 26 25 16 14 17 19 20 18 15 15 15 14 13 15 18 19 17 16 16 15 13 11 13 14 13 12 10 11 11 11 11 11 10 11 11 10 10 9 9 8 8 8 7 7 6 6 6 6 6 5 5
8 12 12 8 12 12 16 21 15 13 15 16 20 31 28 26 26 30 28 30 29 22 16 16 18 16 19 21 23 25 26 25 20 19 18 18 19 16 13 15 19 20 16 15 15 14 13 12 11 13 16 17 18 18 16 14 12 10 9 10 10 11 10 11 10 9 9 8 9 11 10 9 9 9 9 8 8 8 7 7 6 6 5 5 5 5
13 13 12 9 8 13 13 11 11 17 16 19 16 9 15 24 28 30 31 28 26 27 27 27 29 25 28 25 25 28 28 23 22 20 19 24 21 14 15 20 21 20 17 16 16 15 13 13 12 10 12 13 13 10 10 9 9 10 9 10 11 10 10 9 10 8 10 9 10 10 9 10 9 9 9 9 8 8 7 7 6 6 5 5 5 6
15 12 10 10 9 7 6 8 10 16 3 3 8 15 19 23 22 20 24 26 29 30 32 28 25 26 28 29 29 28 26 25 20 15 21 23 21 15 13 16 20 19 19 16 15 14 13 11 10 9 10 9 9 10 13 12 10 13 12 11 15 15 13 15 15 11 9 9 9 9 10 10 10 9 9 9 8 8 8 7 7 7 6 5 5 5
20 15 10 11 11 14 11 13 21 3 2 6 6 11 16 17 15 19 20 21 28 24 21 22 24 27 28 29 32 28 23 19 14 17 20 23 24 19 15 16 17 19 18 17 15 14 11 6 5 7 6 8 11 12 13 12 14 15 15 15 14 17 14 16 16 15 14 10 10 10 11 10 11 10 10 9 9 8 8 8 7 6 5 5 5 5
21 20 13 16 11 14 14 13 10 11 14 11 17 17 18 20 22 26 22 11 2 11 15 21 25 27 30 31 27 23 9 2 14 16 20 25 26 16 15 13 16 17 18 18 14 10 5 4 4 4 8 10 11 13 12 14 15 15 15 16 13 16 16 16 15 11 10 9 10 10 10 10 10 11 10 9 9 9 7 6 5 5 5 5 5 6
23 22 19 17 15 12 14 11 11 14 11 9 21 21 23 19 19 14 14 10 7 12 22 25 25 26 25 21 22 20 10 9 14 18 18 24 21 13 10 12 14 15 14 13 11 9 7 7 6 7 7 10 13 13 14 16 17 18 17 16 18 16 16 14 15 15 15 10 10 9 9 9 9 9 10 9 9 8 8 7 6 5 5 4 4 5
22 17 15 14 14 12 13 11 12 5 10 10 14 18 20 21 21 10 17 7 10 21 26 25 26 24 22 24 22 17 14 15 16 18 19 21 16 6 8 11 12 11 11 9 5 5 3 5 7 8 11 14 15 15 18 16 16 19 18 15 11 18 17 14 14 9 9 9 8 8 8 8 9 8 9 9 9 8 7 6 6 6 5 5 4 5
14 10 13 19 16 19 23 15 8 7 5 8 18 18 21 17 14 19 21 3 15 21 22 24 25 24 23 22 17 15 16 19 18 17 18 14 13 7 5 7 8 6 7 7 7 5 5 7 10 13 14 12 13 15 16 16 16 17 19 16 14 20 22 19 15 13 11 10 9 9 9 7 8 9 8 7 8 7 6 5 5 6 5 5 5 4
9 12 10 11 16 16 15 19 14 11 13 15 14 20 10 2 10 16 14 18 20 23 22 22 25 23 21 19 17 17 17 16 15 14 13 15 17 16 13 8 7 4 2 1 1 6 6 7 7 7 8 9 14 17 16 17 18 17 17 17 24 21 18 17 14 13 12 10 10 9 8 9 8 7 7 8 7 7 6 5 5 5 5 5 5 4
10 10 11 14 10 14 10 11 9 14 7 18 22 18 14 15 18 17 20 17 19 19 20 19 18 18 17 18 17 18 18 16 18 17 16 15 14 15 15 9 9 11 11 8 6 8 8 8 10 11 10 8 13 14 17 19 19 20 19 23 12 13 14 15 16 13 11 11 10 9 9 9 10 8 6 7 7 7 7 6 5 5 5 5 4 5
13 12 6 9 11 11 14 13 11 12 16 20 19 17 15 26 19 20 18 18 15 13 13 13 14 15 15 16 15 13 12 15 16 15 14 13 13 13 13 7 7 9 8 9 9 9 8 10 8 8 7 9 11 14 17 19 18 19 22 16 12 13 16 17 12 13 12 10 10 10 9 9 9 8 8 8 7 8 8 6 6 6 5 5 5 5
4 8 8 10 5 9 5 3 9 12 9 8 15 17 14 12 14 19 18 17 15 13 9 10 10 11 11 12 13 12 13 13 14 12 12 11 12 12 13 10 11 12 12 12 11 8 8 13 12 10 8 7 10 13 16 14 18 20 23 16 12 15 16 15 15 13 13 12 11 10 10 8 7 7 7 7 7 7 7 7 7 5 5 5 5 4
16 13 9 8 5 8 12 7 6 9 13 13 12 10 12 15 17 15 13 15 13 14 13 13 13 11 14 12 8 10 11 10 12 11 10 9 10 10 9 7 5 7 7 6 5 10 10 6 6 9 11 8 10 15 14 13 15 24 21 19 19 13 15 17 18 16 13 12 11 12 12 12 10 9 8 8 7 7 7 7 8 6 6 6 5 4
9 9 7 7 11 10 7 9 13 13 15 14 15 16 16 13 10 12 12 10 11 13 15 15 14 14 12 10 11 10 11 12 13 14 14 13 13 13 13 11 11 10 9 9 13 8 7 10 11 13 14 15 13 15 15 13 10 12 14 17 12 14 22 18 16 14 13 13 12 11 12 13 10 9 9 8 7 6 6 7 7 7 7 6 6 5
8 9 19 11 14 10 11 15 20 20 18 15 10 11 10 8 8 9 10 9 11 11 11 14 16 15 13 15 15 14 15 17 16 16 15 15 15 15 15 14 14 8 8 7 3 8 6 10 13 14 15 15 15 16 15 12 11 14 19 14 15 18 19 15 14 14 13 13 10 9 9 9 11 11 8 7 8 8 7 6 7 7 7 7 7 6
14 18 8 7 17 17 23 18 11 17 18 17 8 5 8 8 8 8 10 13 13 13 14 13 8 10 11 13 13 14 13 16 17 15 15 14 14 14 14 13 8 6 4 5 8 11 14 15 14 15 16 15 11 16 16 12 12 17 17 14 20 18 17 13 12 12 14 11 10 10 9 9 10 9 9 8 7 6 6 7 7 7 5 4 4 5
12 17 17 14 15 17 15 17 17 16 13 16 14 13 8 10 14 15 15 17 18 18 16 17 17 16 15 15 17 15 12 12 15 13 11 12 12 14 13 11 9 7 9 9 9 13 14 12 14 15 16 13 13 16 17 13 15 13 9 14 12 14 15 15 14 12 12 10 10 10 10 9 8 8 8 8 7 6 4 3 7 5 6 6 10 9
13 15 13 13 10 16 16 18 15 19 21 15 16 19 23 19 17 19 18 20 22 23 22 21 21 22 22 21 18 17 16 18 19 17 14 13 14 14 14 12 11 10 10 9 9 11 13 14 13 10 12 14 16 19 17 17 14 18 17 17 15 14 15 17 12 10 10 11 10 11 10 10 9 8 8 8 8 7 7 5 6 9 9 9 8 6
Wind_Direction
169 214 224 233 237 238 231 226 236 252 270 282 278 273 269 272 273 271 273 150 193 255 245 248 255 259 262 264 263 265 268 270 269 261 257 256 257 252 247 245 238 224 213 181 184 183 186 185 183 182 180 180 180 184 180 179 177 177 171 169 173 175 175 173 172 174 175 175 175 177 183 184 182 185 177 180 184 181 184 162 174 171 191 181 189 205
179 233 236 242 247 259 271 274 249 256 263 266 270 271 274 269 269 268 283 141 184 218 266 263 268 263 264 265 264 265 264 257 262 264 259 263 262 256 250 249 243 230 168 160 179 181 178 179 178 177 179 177 179 186 183 184 181 178 174 174 171 174 178 181 179 175 181 182 182 178 182 183 173 174 178 183 180 181 168 164 176 186 184 187 195 208
209 223 240 245 262 274 81 270 261 263 268 264 254 263 270 264 266 273 153 146 150 206 262 266 270 270 270 268 266 260 255 250 240 249 263 268 268 266 260 254 242 193 166 175 188 178 177 175 175 177 181 184 187 184 186 184 179 179 177 178 175 177 179 182 179 177 183 181 181 183 179 180 164 173 175 167 153 160 167 173 181 189 185 189 197 206
235 234 245 255 216 243 254 210 244 251 247 247 240 237 242 257 273 274 136 157 195 215 287 298 286 275 271 260 252 247 247 248 241 246 253 258 263 261 258 259 241 185 174 186 190 185 179 174 177 180 185 187 185 186 187 185 184 179 182 180 177 177 180 179 180 180 178 173 160 156 151 158 157 168 156 159 165 178 183 193 188 191 192 192 202 205
227 242 70 122 210 221 249 225 209 233 241 221 229 243 252 251 248 253 301 281 247 229 250 286 271 264 247 254 241 235 234 242 250 246 246 254 256 257 268 265 239 197 183 193 188 187 181 180 186 188 186 181 187 190 187 185 184 184 183 181 178 177 178 178 175 175 168 153 149 143 132 131 132 98 158 183 199 196 193 197 191 194 187 192 201 213
249 248 126 172 191 212 233 246 224 229 255 246 222 226 241 255 267 270 291 355 305 292 157 343 308 265 243 237 238 163 133 207 237 238 241 240 248 245 249 247 208 197 189 197 190 187 185 187 186 187 186 188 190 191 190 185 185 182 180 179 177 175 175 178 173 173 165 165 167 166 169 176 185 193 191 200 196 183 187 194 188 181 179 187 206 216
253 106 172 227 234 211 234 245 251 210 246 245 245 236 247 253 264 270 276 333 281 268 96 319 346 294 153 229 205 163 188 195 177 216 241 233 231 233 237 221 186 193 198 203 191 179 180 187 185 188 191 191 189 190 182 182 184 183 181 178 179 175 176 178 172 173 171 173 181 182 185 188 189 192 196 193 186 177 166 166 170 179 190 201 209 213
201 193 196 218 224 230 236 248 235 217 235 247 54 324 166 252 252 254 261 241 265 289 273 156 241 280 283 192 210 206 231 234 229 242 246 225 218 220 233 205 177 187 189 188 188 183 185 185 186 190 190 189 190 182 180 181 184 184 181 178 179 177 178 176 171 176 178 177 181 183 188 193 193 196 185 171 154 155 157 163 179 195 204 202 205 212
191 186 192 195 207 218 233 242 329 197 217 271 37 18 54 300 265 233 232 259 267 298 271 198 193 261 264 190 194 197 218 221 233 243 250 250 243 237 233 201 177 183 188 181 180 185 187 188 190 186 187 188 184 183 181 181 183 182 181 180 179 181 178 176 173 175 179 181 180 180 183 188 190 183 174 151 156 160 171 183 189 202 212 209 209 216
52 29 195 202 179 227 189 45 353 195 225 125 129 78 79 85 90 213 256 260 276 265 257 211 177 237 275 147 181 196 203 209 224 231 239 240 236 235 227 180 175 182 184 183 184 184 187 188 185 187 180 180 186 182 180 179 179 180 180 182 182 184 181 176 174 175 178 180 179 182 185 183 180 177 176 174 170 178 180 190 197 201 207 211 209 208
99 161 41 222 221 239 88 57 41 20 54 124 142 142 116 164 200 194 235 264 294 254 245 216 192 191 277 192 165 161 197 202 205 221 234 235 223 220 186 172 173 177 178 181 184 184 183 180 178 177 182 181 179 180 179 178 179 179 182 183 185 186 181 176 175 175 178 180 182 184 185 184 181 174 175 174 183 183 184 198 199 203 207 205 207 204
197 155 213 224 73 107 125 95 56 56 136 178 149 209 220 227 200 241 217 182 249 266 230 185 192 188 242 125 175 188 188 196 176 220 242 248 234 213 171 179 177 174 175 175 176 175 172 169 176 177 183 181 180 177 181 180 179 182 184 184 186 186 183 177 176 177 180 179 183 183 183 183 184 175 175 183 186 190 195 200 202 201 205 210 208 210
228 214 201 112 245 179 165 204 104 126 170 213 198 184 222 248 174 229 168 221 211 250 92 164 181 217 230 235 196 190 192 196 184 232 256 256 240 228 169 164 168 169 168 171 172 170 172 176 178 183 186 178 181 184 183 181 181 183 185 186 187 189 184 179 177 178 178 177 181 180 180 184 183 184 179 184 189 190 193 195 201 203 210 210 214 210
242 80 176 189 91 218 180 204 177 206 190 189 196 191 195 251 239 256 246 240 264 250 155 142 178 245 279 269 227 237 214 200 217 224 233 238 239 240 162 147 160 172 174 172 172 174 178 182 182 185 183 184 185 185 184 183 184 184 187 188 190 190 183 180 178 178 178 180 180 179 181 182 180 184 183 184 187 189 192 193 199 203 209 214 217 217
261 250 201 153 223 162 191 213 207 248 164 201 200 179 208 214 235 262 248 250 248 274 128 175 121 229 128 231 182 214 216 208 221 224 209 218 211 114 98 127 152 177 181 174 178 179 185 186 183 183 186 186 187 187 186 185 187 185 188 189 190 186 185 181 180 178 178 178 178 177 179 180 179 181 182 184 184 185 188 192 194 202 207 215 218 222
230 250 111 153 24 146 190 211 95 105 151 191 197 219 248 234 224 242 254 283 317 332 289 173 219 249 242 82 167 221 200 203 211 221 198 206 199 152 152 175 183 191 189 186 185 187 189 184 182 184 187 189 188 188 187 188 185 188 190 189 189 187 182 180 179 179 178 177 176 177 178 178 176 175 176 178 182 183 185 190 191 200 205 213 221 228
83 254 119 119 55 172 160 5 190 181 226 163 162 205 213 23 230 256 278 273 85 290 261 172 255 249 254 258 178 172 187 187 204 215 208 214 202 173 191 189 192 192 193 190 194 189 184 182 187 191 189 187 186 187 190 190 188 189 182 184 185 185 182 181 181 176 176 174 173 177 174 174 174 174 177 178 178 175 175 185 191 196 203 213 219 226
237 238 89 173 216 87 327 329 351 10 351 111 216 213 58 335 22 243 259 245 246 253 273 256 259 279 265 295 152 171 189 188 205 205 212 211 192 192 204 192 189 198 201 197 200 197 186 186 190 192 194 191 190 191 191 190 186 185 184 183 182 183 183 181 178 176 176 173 173 172 173 174 173 172 175 173 172 171 172 182 188 195 203 208 211 212
164 271 174 298 46 90 98 208 229 167 320 262 222 350 178 206 202 212 239 245 257 255 266 273 270 262 257 251 149 195 184 203 206 207 214 201 194 208 208 216 206 201 194 197 206 197 190 196 197 197 197 196 195 193 192 186 180 181 184 184 185 187 184 178 175 174 173 170 167 168 169 168 169 168 170 168 165 167 177 185 191 197 202 202 204 207
187 234 225 335 154 107 150 192 220 173 196 195 298 248 346 332 243 195 198 239 231 262 269 275 283 272 228 243 184 190 190 206 204 207 201 206 205 204 203 210 219 204 193 200 193 192 199 203 200 196 194 193 194 189 185 182 180 184 186 181 188 185 177 174 174 173 171 168 158 157 159 165 165 164 166 167 165 175 181 187 192 197 200 203 201 212
244 138 262 95 298 200 219 189 210 168 180 194 220 230 190 213 14 355 307 234 222 243 245 271 281 275 279 238 162 180 193 199 199 197 192 204 208 204 202 212 213 208 189 192 195 192 198 202 197 194 192 193 190 186 180 184 185 185 183 183 183 183 175 175 173 166 167 160 158 156 162 164 164 164 164 164 170 175 180 185 191 197 199 196 205 203
208 172 236 158 198 213 235 164 197 203 194 185 184 200 198 176 194 216 245 211 238 230 235 251 255 270 274 97 142 143 158 175 196 187 181 192 203 202 209 219 222 222 207 204 207 190 200 197 184 179 180 181 182 186 185 185 176 179 184 182 182 180 176 172 171 169 164 161 159 163 163 163 163 162 163 165 169 176 177 185 188 189 192 201 202 204
197 196 223 218 209 223 212 195 332 17 7 281 213 219 196 196 183 190 232 209 142 235 259 246 266 259 261 112 101 107 134 157 200 177 197 189 198 195 209 214 219 222 206 202 206 202 209 187 179 179 176 180 185 185 183 182 185 185 184 178 184 181 183 175 170 164 161 161 163 166 162 161 162 163 166 167 171 177 178 182 184 186 192 197 198 202
43 188 214 249 269 288 349 55 253 58 284 288 256 247 205 214 204 209 224 218 225 175 212 232 235 260 270 99 105 127 190 212 196 218 224 223 193 197 210 212 220 206 222 227 212 214 215 178 138 154 181 188 192 189 191 188 186 186 186 186 184 189 183 172 169 166 162 163 164 162 161 163 162 164 167 169 173 175 178 179 182 184 189 194 194 200
209 183 225 241 250 282 265 216 208 191 198 218 225 215 224 234 219 226 346 86 249 223 239 236 251 246 260 118 230 256 206 196 213 218 222 230 213 210 214 212 210 214 214 204 222 225 207 182 179 185 190 189 191 193 193 191 190 190 190 185 188 191 181 173 166 164 164 163 161 163 162 164 163 166 169 169 170 173 175 177 176 181 186 188 194 198
225 169 187 221 223 230 225 223 230 203 194 212 232 231 216 216 217 203 231 217 244 238 237 243 259 254 265 279 281 258 180 215 213 221 201 210 221 210 209 202 195 206 208 213 216 217 214 201 192 192 203 197 193 192 192 193 192 193 191 192 189 183 179 173 165 163 162 162 160 163 163 163 163 168 169 168 168 170 172 172 177 178 181 186 191 195
258 275 206 219 227 230 233 249 277 85 141 200 206 216 218 214 213 220 226 232 228 238 237 237 245 259 262 268 268 273 261 242 253 219 188 221 220 225 216 202 203 205 209 209 215 222 208 176 191 210 203 198 193 190 190 190 190 190 191 190 188 186 175 166 159 162 162 162 161 161 164 164 166 164 164 165 164 164 168 171 174 174 175 176 183 193
13 254 233 241 244 249 250 252 259 262 255 207 220 216 211 209 206 210 216 232 230 255 250 236 247 249 247 257 269 275 276 269 260 273 267 228 210 207 205 203 217 223 215 220 228 220 210 213 214 206 200 196 196 188 188 192 191 189 190 189 186 179 164 158 159 161 162 161 162 163 163 162 159 158 159 159 158 161 164 165 164 169 168 170 181 196
252 256 253 260 256 257 259 262 260 258 255 254 237 233 217 210 213 214 224 231 221 232 245 241 244 247 250 246 259 265 269 264 269 272 275 273 266 217 173 214 231 233 227 229 232 226 220 221 219 209 206 206 189 185 189 185 189 187 189 187 183 173 166 154 156 159 160 161 162 162 156 151 150 151 149 151 154 156 160 160 160 162 167 172 184 197
276 243 253 247 264 263 264 263 263 264 267 265 259 248 238 222 222 225 231 220 225 239 241 246 253 258 258 258 254 260 264 271 278 281 279 270 257 243 207 240 256 251 244 245 242 238 230 229 227 220 214 202 178 188 184 185 188 187 186 185 177 168 157 148 163 160 160 163 162 152 150 145 143 146 144 151 155 157 156 158 158 162 167 176 188 198
202 232 221 246 257 255 255 258 259 259 261 263 263 263 264 262 251 241 243 230 230 235 242 243 250 260 262 259 260 260 264 277 282 277 266 257 268 267 270 278 278 276 269 259 251 241 235 232 229 229 226 215 193 191 189 186 185 182 182 179 173 164 158 156 158 158 158 159 150 145 141 138 144 144 149 151 151 149 153 156 157 162 168 176 189 200
190 247 229 246 250 248 240 245 247 249 253 261 268 272 266 257 258 254 237 222 230 243 245 252 256 253 255 256 254 266 276 268 267 268 267 273 271 274 283 276 269 268 270 270 263 253 240 232 230 229 230 221 207 195 182 177 176 179 183 174 167 157 151 153 153 152 152 145 136 140 138 139 139 142 145 144 146 145 147 151 154 162 169 177 190 201
188 216 221 220 236 240 240 239 244 252 257 254 247 245 243 246 251 263 265 260 243 232 244 241 233 234 245 257 274 274 266 262 259 259 264 265 267 272 268 264 263 263 267 267 262 259 253 239 230 229 229 225 216 207 196 176 167 177 178 168 162 137 147 151 147 143 140 134 138 138 138 137 139 139 140 144 144 144 146 154 158 164 172 186 191 197
201 215 231 209 240 239 236 244 244 247 231 227 224 227 233 246 247 248 249 248 247 239 243 235 250 249 251 252 254 259 260 258 258 256 257 263 273 278 267 260 263 267 269 266 264 263 260 254 244 230 225 222 215 207 196 177 172 168 153 136 130 140 146 139 140 134 138 133 137 138 137 137 138 140 141 139 141 146 152 161 170 170 175 178 192 203
215 220 234 216 241 240 238 242 243 228 231 231 233 234 244 246 246 246 247 254 262 258 252 252 250 247 253 255 255 256 257 264 265 267 275 271 266 261 266 271 271 270 273 271 270 263 258 257 255 237 223 221 209 178 148 152 149 142 137 140 140 142 139 138 133 134 141 140 139 136 137 135 136 135 137 140 146 152 160 166 168 171 177 183 194 203
229 219 220 226 229 260 239 208 239 241 207 256 185 218 224 240 248 261 263 255 254 250 248 248 251 253 255 256 257 254 258 264 272 278 266 268 269 255 246 255 265 272 270 266 267 269 265 259 251 226 215 198 178 173 168 166 141 131 140 136 144 141 141 146 147 136 141 141 142 140 140 135 137 137 140 147 152 157 162 166 171 171 178 186 198 206
223 228 211 244 202 236 219 214 230 268 337 142 161 217 215 219 212 218 240 231 231 243 252 257 252 252 252 252 252 257 264 271 276 266 269 264 263 258 247 249 257 261 266 268 264 263 264 245 213 205 183 171 175 171 180 166 158 156 149 160 162 161 156 151 161 156 152 149 143 143 145 143 140 141 145 150 153 160 165 165 167 172 175 185 197 207
210 218 205 230 220 210 235 236 239 227 238 189 210 227 225 223 220 228 239 270 172 253 245 246 245 242 245 249 257 263 265 289 256 258 262 265 261 257 253 249 250 255 260 263 264 259 229 195 185 173 173 170 176 178 167 159 158 156 153 153 141 159 158 155 159 146 140 138 142 139 139 143 142 144 146 153 158 158 160 155 161 171 181 183 196 210
217 219 223 220 234 210 226 228 223 225 234 172 226 228 239 240 239 253 258 241 152 235 246 244 245 247 249 253 253 251 238 234 243 250 254 262 272 267 246 244 244 247 249 251 252 245 213 204 180 171 165 167 178 177 159 157 157 158 159 152 155 156 154 165 148 153 149 140 134 132 132 134 139 140 146 147 152 154 153 159 162 166 175 190 201 215
215 216 221 236 236 231 245 238 240 192 244 187 210 226 234 241 245 239 247 229 160 222 236 245 249 250 252 249 247 243 232 239 236 245 248 257 270 288 246 237 240 240 246 248 239 228 201 140 137 166 177 186 187 160 161 158 159 164 155 157 152 160 169 170 158 133 106 113 120 114 119 130 130 132 138 144 141 143 145 147 154 166 175 191 204 213
214 216 209 227 217 224 225 244 253 243 197 181 218 224 231 237 237 239 240 215 211 223 232 241 248 248 246 250 247 248 231 236 240 244 256 272 278 258 233 228 235 235 241 242 231 153 166 180 186 192 193 189 157 158 160 160 161 169 169 160 163 183 169 145 130 136 136 128 123 123 125 123 126 130 125 130 131 134 142 152 158 165 178 193 212 208
226 213 225 211 222 223 223 234 235 240 216 210 221 227 218 134 218 231 232 226 231 232 236 238 246 250 252 246 246 246 249 247 247 250 260 262 262 264 256 224 224 228 236 29 121 168 182 173 189 185 178 176 163 164 164 163 173 169 161 159 186 166 124 125 122 115 112 122 119 119 116 117 117 110 119 124 130 134 144 153 160 167 175 197 203 198
180 203 206 203 217 232 234 240 250 237 124 194 229 233 206 225 231 231 248 238 238 240 242 247 251 258 255 258 248 250 252 252 254 256 255 258 260 261 260 233 209 218 218 201 195 202 180 189 200 203 185 155 166 165 168 168 171 175 171 180 161 121 131 119 120 119 121 121 122 119 117 117 121 127 127 133 137 141 144 151 160 175 189 208 192 197
174 236 218 217 182 223 216 208 226 221 223 201 205 226 197 221 231 233 239 252 250 256 253 255 254 256 256 256 256 249 242 248 255 257 260 261 260 261 262 250 216 217 214 209 206 185 186 200 192 177 161 159 168 176 172 170 174 174 171 157 127 133 122 130 127 123 115 111 113 112 113 120 124 124 135 142 143 149 152 155 158 179 193 196 200 195
134 279 338 300 255 243 264 306 325 346 295 236 235 251 274 282 268 259 258 263 271 270 284 280 281 278 277 287 289 284 274 266 265 265 269 267 265 263 263 249 220 214 209 200 199 182 181 198 192 181 169 170 170 180 180 181 171 171 170 148 140 141 138 132 127 124 124 125 125 123 123 118 125 130 134 144 148 148 157 163 166 182 189 190 206 196
315 300 308 297 290 307 305 291 335 6 347 345 338 340 327 332 334 331 314 303 303 318 333 329 342 353 348 352 345 312 303 316 319 319 309 301 295 293 291 292 256 232 213 193 192 192 198 188 170 171 180 172 181 182 186 187 173 175 168 131 131 135 131 132 128 127 128 126 128 130 135 137 142 149 152 155 159 162 165 164 175 182 176 190 191 186
288 300 350 310 297 304 275 357 356 337 323 315 309 309 305 302 310 320 329 333 335 336 331 327 321 320 314 312 308 309 308 306 304 301 296 291 290 288 283 267 251 232 211 209 214 171 175 178 180 188 186 190 187 184 188 187 186 170 136 143 131 135 128 128 130 129 133 134 134 138 146 149 153 154 156 161 159 169 171 171 184 180 178 185 180 183
293 6 328 317 306 293 298 320 312 307 292 288 279 285 303 333 335 327 318 325 326 324 318 314 317 316 321 317 313 303 297 294 292 289 284 279 277 278 279 279 273 257 230 225 167 170 180 189 199 197 191 196 184 176 183 180 169 156 133 117 138 132 136 136 144 142 141 138 136 139 147 144 143 144 147 163 166 169 172 178 181 178 184 179 177 176
293 319 254 312 292 292 291 279 276 292 292 290 294 47 3 338 331 319 318 318 318 314 310 301 292 288 297 296 300 298 294 288 283 279 278 282 284 282 280 279 281 271 245 202 191 181 196 203 204 203 196 197 154 160 174 173 157 144 143 144 138 145 142 141 131 123 128 132 133 140 149 144 152 155 152 159 169 177 173 174 175 181 169 166 166 176
278 269 291 303 290 285 278 299 322 312 310 311 312 320 322 329 317 315 317 313 310 307 305 304 301 300 297 299 301 301 293 288 286 287 283 279 274 276 279 277 267 242 232 214 196 198 211 211 206 202 200 188 160 166 178 167 146 140 143 138 149 148 140 140 134 132 140 141 141 145 145 145 150 150 148 154 159 156 145 181 192 175 167 170 192 193
243 257 263 266 270 275 291 296 303 298 292 288 303 317 315 312 308 305 304 300 299 298 296 294 295 295 290 283 278 280 283 282 285 285 279 273 270 266 264 266 264 253 242 220 197 206 209 213 207 199 196 184 158 172 174 158 152 144 148 158 160 160 146 140 139 136 137 146 153 153 146 147 148 150 150 155 153 151 147 158 189 194 179 174 170 171